EWG4UY EDDL-LIEO

Flight info

Callsign EWG4UY
Flight time N/A
Altitude 37000
Route DODEN4H DODEN Y852 NATOR DCT TRA DCT RIPUS DCT GERSA DCT SOSON DCT ODINA DCT UNITA DCT OLETI DCT TORTU DCT OKROK DCT AJO DCT CORSI
Aircraft A320/M-SDE3FGHIRWY/LB1

Departure

Time 2026-05-05 09:16
Airport Düsseldorf Airport (EDDL)

Arrival

Time N/A
Airport Olbia Costa Smeralda Airport (LIEO)
Time Latitude Longitude Altitude Speed Heading
2026-05-05 08:38 51.28360 6.77134 140 ft 0 kts 142°
2026-05-05 09:03 51.28374 6.77117 127 ft 4 kts 141°
2026-05-05 09:03 51.28392 6.77094 124 ft 3 kts 143°
2026-05-05 09:03 51.28411 6.77084 126 ft 4 kts 211°
2026-05-05 09:03 51.28429 6.77111 126 ft 4 kts 232°
2026-05-05 09:04 51.28439 6.77132 125 ft 0 kts 231°
2026-05-05 09:09 51.28433 6.77119 124 ft 3 kts 232°
2026-05-05 09:10 51.28416 6.77084 127 ft 5 kts 232°
2026-05-05 09:10 51.28390 6.77031 124 ft 7 kts 233°
2026-05-05 09:10 51.28357 6.76959 127 ft 9 kts 235°
2026-05-05 09:10 51.28373 6.76865 127 ft 11 kts 322°
2026-05-05 09:11 51.28446 6.76777 123 ft 11 kts 324°
2026-05-05 09:11 51.28491 6.76784 126 ft 7 kts 37°
2026-05-05 09:11 51.28525 6.76850 126 ft 8 kts 53°
2026-05-05 09:11 51.28559 6.76923 128 ft 9 kts 52°
2026-05-05 09:12 51.28599 6.77004 129 ft 10 kts 53°
2026-05-05 09:12 51.28644 6.77099 129 ft 11 kts 53°
2026-05-05 09:12 51.28696 6.77209 129 ft 13 kts 53°
2026-05-05 09:12 51.28757 6.77337 124 ft 15 kts 52°
2026-05-05 09:13 51.28827 6.77482 129 ft 18 kts 52°
2026-05-05 09:13 51.28906 6.77647 129 ft 20 kts 53°
2026-05-05 09:13 51.28993 6.77831 130 ft 22 kts 52°
2026-05-05 09:13 51.29087 6.78030 131 ft 23 kts 53°
2026-05-05 09:14 51.29182 6.78230 137 ft 22 kts 53°
2026-05-05 09:14 51.29270 6.78413 145 ft 20 kts 53°
2026-05-05 09:14 51.29339 6.78547 151 ft 10 kts 38°
2026-05-05 09:14 51.29402 6.78571 152 ft 10 kts 353°
2026-05-05 09:15 51.29480 6.78558 152 ft 13 kts 358°
2026-05-05 09:15 51.29541 6.78545 152 ft 4 kts 323°
2026-05-05 09:15 51.29531 6.78491 151 ft 7 kts 232°
2026-05-05 09:15 51.29509 6.78447 150 ft 9 kts 231°
2026-05-05 09:16 51.29347 6.78108 141 ft 74 kts 233°
2026-05-05 09:16 51.28909 6.77185 125 ft 131 kts 233°
2026-05-05 09:16 51.28267 6.75846 238 ft 162 kts 233°
2026-05-05 09:16 51.27604 6.74426 887 ft 159 kts 236°
2026-05-05 09:17 51.26954 6.73010 1459 ft 161 kts 234°
2026-05-05 09:17 51.26255 6.71496 1750 ft 180 kts 234°
2026-05-05 09:17 51.25463 6.69789 1999 ft 203 kts 233°
2026-05-05 09:17 51.24571 6.67871 2258 ft 227 kts 233°
2026-05-05 09:18 51.23576 6.65741 2641 ft 251 kts 232°
2026-05-05 09:18 51.22236 6.63896 3297 ft 261 kts 202°
2026-05-05 09:18 51.20442 6.63498 4151 ft 262 kts 177°
2026-05-05 09:18 51.18638 6.63707 4824 ft 257 kts 174°
2026-05-05 09:19 51.16863 6.64025 5639 ft 257 kts 172°
2026-05-05 09:19 51.15165 6.64867 6496 ft 258 kts 148°
2026-05-05 09:19 51.13838 6.66790 7246 ft 263 kts 125°
2026-05-05 09:19 51.13141 6.69488 8012 ft 269 kts 99°
2026-05-05 09:20 51.13141 6.72488 8827 ft 273 kts 87°
2026-05-05 09:20 51.13262 6.75522 9678 ft 276 kts 87°
2026-05-05 09:20 51.13386 6.78588 10389 ft 279 kts 88°
2026-05-05 09:20 51.13510 6.81695 11064 ft 283 kts 88°
2026-05-05 09:21 51.13631 6.84823 11733 ft 287 kts 88°
2026-05-05 09:21 51.13753 6.88011 12422 ft 290 kts 88°
2026-05-05 09:21 51.13872 6.91226 13110 ft 292 kts 88°
2026-05-05 09:21 51.13989 6.94438 13767 ft 296 kts 88°
2026-05-05 09:22 51.14106 6.97725 14370 ft 299 kts 88°
2026-05-05 09:22 51.14223 7.01042 14983 ft 302 kts 88°
2026-05-05 09:22 51.14343 7.04399 15639 ft 305 kts 88°
2026-05-05 09:22 51.14464 7.07789 16212 ft 312 kts 88°
2026-05-05 09:23 51.14588 7.11346 16325 ft 331 kts 88°
2026-05-05 09:23 51.14720 7.15114 16449 ft 349 kts 88°
2026-05-05 09:23 51.14858 7.19074 16589 ft 367 kts 88°
2026-05-05 09:23 51.14999 7.23194 17007 ft 377 kts 88°
2026-05-05 09:24 51.15140 7.27390 17637 ft 381 kts 88°
2026-05-05 09:24 51.15282 7.31629 18261 ft 385 kts 88°
2026-05-05 09:24 51.15413 7.35906 18795 ft 388 kts 90°
2026-05-05 09:24 51.15164 7.40185 19320 ft 389 kts 103°
2026-05-05 09:25 51.14368 7.44305 19842 ft 390 kts 115°
2026-05-05 09:25 51.13062 7.48089 20379 ft 391 kts 127°
2026-05-05 09:25 51.11302 7.51380 20897 ft 391 kts 137°
2026-05-05 09:25 51.09331 7.54384 21424 ft 394 kts 138°
2026-05-05 09:26 51.07346 7.57399 21976 ft 395 kts 138°
2026-05-05 09:26 51.05356 7.60420 22498 ft 397 kts 138°
2026-05-05 09:26 51.03354 7.63469 22977 ft 400 kts 138°
2026-05-05 09:26 51.01367 7.66498 23453 ft 403 kts 138°
2026-05-05 09:27 50.99312 7.69623 23868 ft 405 kts 139°
2026-05-05 09:27 50.97284 7.72654 24263 ft 407 kts 142°
2026-05-05 09:27 50.95006 7.75297 24653 ft 406 kts 150°
2026-05-05 09:27 50.92588 7.77668 25027 ft 409 kts 150°
2026-05-05 09:28 50.90162 7.80048 25413 ft 411 kts 150°
2026-05-05 09:28 50.87728 7.82442 25782 ft 413 kts 151°
2026-05-05 09:28 50.85280 7.84849 26141 ft 416 kts 151°
2026-05-05 09:28 50.82817 7.87267 26497 ft 418 kts 151°
2026-05-05 09:29 50.80340 7.89693 26855 ft 420 kts 151°
2026-05-05 09:29 50.77849 7.92131 27231 ft 422 kts 151°
2026-05-05 09:29 50.75345 7.94582 27587 ft 425 kts 151°
2026-05-05 09:29 50.72824 7.97044 27920 ft 427 kts 152°
2026-05-05 09:30 50.70289 7.99520 28277 ft 429 kts 152°
2026-05-05 09:30 50.67746 8.02003 28623 ft 431 kts 152°
2026-05-05 09:30 50.65194 8.04493 28956 ft 433 kts 152°
2026-05-05 09:30 50.62592 8.06906 29300 ft 432 kts 158°
2026-05-05 09:31 50.59823 8.08688 29600 ft 429 kts 167°
2026-05-05 09:31 50.56963 8.09708 30006 ft 424 kts 176°
2026-05-05 09:31 50.54045 8.10129 30460 ft 419 kts 179°
2026-05-05 09:31 50.51149 8.10496 30919 ft 417 kts 179°
2026-05-05 09:32 50.48268 8.10876 31367 ft 415 kts 179°
2026-05-05 09:32 50.45398 8.11261 31822 ft 413 kts 179°
2026-05-05 09:32 50.42547 8.11645 32285 ft 410 kts 179°
2026-05-05 09:32 50.39705 8.12026 32752 ft 408 kts 179°
2026-05-05 09:33 50.36883 8.12399 33215 ft 406 kts 180°
2026-05-05 09:33 50.34076 8.12767 33668 ft 404 kts 180°
2026-05-05 09:33 50.31287 8.13131 34078 ft 401 kts 180°
2026-05-05 09:33 50.28504 8.13491 34421 ft 400 kts 180°
2026-05-05 09:34 50.25732 8.13845 34722 ft 400 kts 180°
2026-05-05 09:34 50.22951 8.14199 35010 ft 400 kts 180°
2026-05-05 09:34 50.20173 8.14554 35289 ft 400 kts 179°
2026-05-05 09:34 50.17402 8.14910 35559 ft 400 kts 179°
2026-05-05 09:35 50.14622 8.15266 35827 ft 400 kts 179°
2026-05-05 09:35 50.09115 8.16008 36377 ft 399 kts 178°
2026-05-05 09:35 50.06355 8.16401 36632 ft 399 kts 178°
2026-05-05 09:36 50.03592 8.16794 36834 ft 399 kts 178°
2026-05-05 09:36 50.00809 8.17185 36889 ft 403 kts 178°
2026-05-05 09:36 49.95165 8.17979 36886 ft 409 kts 178°
2026-05-05 09:37 49.89474 8.18773 36868 ft 410 kts 178°
2026-05-05 09:37 49.83814 8.19549 36874 ft 410 kts 178°
2026-05-05 09:38 49.78122 8.20331 36873 ft 410 kts 178°
2026-05-05 09:38 49.72434 8.21118 36875 ft 411 kts 178°
2026-05-05 09:39 49.66736 8.21904 36870 ft 411 kts 178°
2026-05-05 09:39 49.61034 8.22680 36877 ft 412 kts 178°
2026-05-05 09:40 49.55326 8.23466 36879 ft 412 kts 178°
2026-05-05 09:40 49.49622 8.24248 36880 ft 412 kts 178°
2026-05-05 09:41 49.43914 8.25021 36875 ft 412 kts 178°
2026-05-05 09:41 49.38204 8.25793 36884 ft 412 kts 178°
2026-05-05 09:42 49.32496 8.26563 36885 ft 412 kts 178°
2026-05-05 09:42 49.26821 8.27333 36891 ft 412 kts 178°
2026-05-05 09:43 49.21115 8.28106 36880 ft 412 kts 178°
2026-05-05 09:43 49.15396 8.28866 36880 ft 412 kts 178°
2026-05-05 09:44 49.09682 8.29624 36887 ft 412 kts 178°
2026-05-05 09:44 49.03962 8.30385 36892 ft 412 kts 177°
2026-05-05 09:45 48.98249 8.31134 36891 ft 412 kts 179°
2026-05-05 09:45 48.92525 8.31395 36901 ft 411 kts 182°
2026-05-05 09:46 48.86839 8.31326 36902 ft 411 kts 182°
2026-05-05 09:46 48.81119 8.31299 36905 ft 411 kts 182°
2026-05-05 09:47 48.75401 8.31354 36899 ft 411 kts 181°
2026-05-05 09:47 48.69668 8.31435 36892 ft 412 kts 181°
2026-05-05 09:48 48.63934 8.31521 36896 ft 412 kts 181°
2026-05-05 09:48 48.58194 8.31596 36896 ft 412 kts 181°
2026-05-05 09:49 48.52456 8.31674 36895 ft 412 kts 181°
2026-05-05 09:49 48.46714 8.31750 36894 ft 412 kts 181°
2026-05-05 09:50 48.40975 8.31823 36891 ft 412 kts 181°
2026-05-05 09:50 48.35244 8.31890 36893 ft 412 kts 181°
2026-05-05 09:51 48.29510 8.31955 36891 ft 412 kts 181°
2026-05-05 09:51 48.23806 8.32024 36892 ft 412 kts 181°
2026-05-05 09:52 48.18070 8.32102 36895 ft 412 kts 180°
2026-05-05 09:52 48.12365 8.33242 36894 ft 414 kts 173°
2026-05-05 09:53 48.06678 8.34625 36897 ft 414 kts 173°
2026-05-05 09:53 48.00985 8.35996 36900 ft 414 kts 173°
2026-05-05 09:54 47.95326 8.37363 36907 ft 415 kts 173°
2026-05-05 09:54 47.89628 8.38730 36902 ft 415 kts 173°
2026-05-05 09:55 47.83927 8.40099 36907 ft 415 kts 173°
2026-05-05 09:55 47.78224 8.41464 36906 ft 415 kts 173°
2026-05-05 09:56 47.72524 8.42829 36896 ft 415 kts 173°
2026-05-05 09:56 47.66813 8.44129 36874 ft 415 kts 175°
2026-05-05 09:57 47.61074 8.45014 36905 ft 415 kts 177°
2026-05-05 09:57 47.55317 8.45747 36916 ft 415 kts 177°
2026-05-05 09:58 47.49601 8.46524 36924 ft 416 kts 176°
2026-05-05 09:58 47.43840 8.47372 36925 ft 416 kts 176°
2026-05-05 09:59 47.38075 8.48232 36927 ft 416 kts 176°
2026-05-05 09:59 47.32311 8.49088 36907 ft 417 kts 176°
2026-05-05 10:00 47.26542 8.49930 36909 ft 416 kts 177°
2026-05-05 10:00 47.20771 8.50759 36915 ft 417 kts 177°
2026-05-05 10:01 47.15020 8.51595 36919 ft 417 kts 176°
2026-05-05 10:01 47.09245 8.52445 36921 ft 417 kts 176°
2026-05-05 10:02 47.03468 8.53284 36911 ft 417 kts 177°
2026-05-05 10:02 46.97680 8.54116 36917 ft 418 kts 177°
2026-05-05 10:03 46.92866 8.54805 36921 ft 418 kts 177°
2026-05-05 10:03 46.87048 8.55641 36945 ft 419 kts 177°
2026-05-05 10:04 46.81245 8.56470 36957 ft 418 kts 177°
2026-05-05 10:04 46.75447 8.57299 36948 ft 420 kts 178°
2026-05-05 10:05 46.69625 8.58133 36977 ft 420 kts 178°
2026-05-05 10:05 46.63822 8.58961 36998 ft 419 kts 178°
2026-05-05 10:06 46.58008 8.59787 37022 ft 420 kts 178°
2026-05-05 10:06 46.52230 8.60602 37024 ft 420 kts 178°
2026-05-05 10:07 46.46420 8.61421 37031 ft 419 kts 178°
2026-05-05 10:07 46.40610 8.62248 37040 ft 420 kts 178°
2026-05-05 10:08 46.34786 8.63075 37044 ft 420 kts 178°
2026-05-05 10:08 46.28963 8.63905 37048 ft 420 kts 178°
2026-05-05 10:09 46.23181 8.64714 37038 ft 420 kts 178°
2026-05-05 10:09 46.17363 8.65520 37048 ft 420 kts 178°
2026-05-05 10:10 46.11541 8.66331 37047 ft 420 kts 178°
2026-05-05 10:10 46.05730 8.67222 37046 ft 421 kts 177°
2026-05-05 10:11 45.99924 8.68268 37048 ft 420 kts 176°
2026-05-05 10:11 45.94116 8.69312 37051 ft 420 kts 177°
2026-05-05 10:12 45.88324 8.70317 37027 ft 419 kts 177°
2026-05-05 10:12 45.82573 8.71296 37018 ft 419 kts 178°
2026-05-05 10:13 45.76779 8.72283 37023 ft 419 kts 178°
2026-05-05 10:13 45.70982 8.73274 37022 ft 419 kts 178°
2026-05-05 10:14 45.65188 8.74264 37044 ft 419 kts 178°
2026-05-05 10:14 45.59402 8.75257 37041 ft 419 kts 178°
2026-05-05 10:15 45.53614 8.76242 37040 ft 419 kts 178°
2026-05-05 10:15 45.47858 8.77207 37035 ft 419 kts 178°
2026-05-05 10:16 45.42066 8.78174 37055 ft 420 kts 178°
2026-05-05 10:16 45.36258 8.79147 37048 ft 420 kts 178°
2026-05-05 10:17 45.30445 8.80130 37051 ft 420 kts 178°
2026-05-05 10:17 45.24635 8.81114 37050 ft 421 kts 178°
2026-05-05 10:18 45.18823 8.82103 37004 ft 421 kts 179°
2026-05-05 10:18 45.13006 8.83085 37016 ft 421 kts 179°
2026-05-05 10:19 45.07232 8.84033 37006 ft 421 kts 179°
2026-05-05 10:19 45.01410 8.84995 36988 ft 421 kts 179°
2026-05-05 10:20 44.99483 8.85317 36998 ft 421 kts 179°